Other Public Products
Issued by NWS Charleston, SC

Home | Current Version | Previous Version | Text Only | Print | Product List | Glossary On
Versions: 1 2 3 4 5 6 7 8 9 10 11 12 13 14 15 16 17 18 19 20 21 22 23 24 25 26 27 28 29 30 31 32 33 34 35 36 37 38 39 40 41 42 43 44 45 46 47 48 49 50
600
FPUS82 KCHS 240126
OPUCHS

TEST...KCHS/KSAV Gateway Observations...TEST
National Weather Service Charleston SC
800 PM EST THU FEB 23 2017

NOTE: "fair" indicates few or no clouds below 12,000 feet with no
significant weather and/or obstructions to visibility.

SCZ050-WAZ558-NCZ071-TXZ119-213-PAZ071-DCZ001-FLZ074-172-MI076-
NYZ176-178-MAZ016-IL014-TNZ027-NJZ106-GAZ044-MD014-240200-
...Gateway Observations for Charleston International...

CITY           SKY/WX    TMP DP  RH WIND       PRES   REMARKS
Chas Airport   CLEAR     67  59  75 E8        29.86R
Seattle        PTCLDY    40  32  73 CALM      30.21F
Charlotte      PTCLDY    68  49  50 E8        29.89R
Dallas DFW     PTCLDY    81  50  33 S16       29.48R
Dallas Love    PTCLDY    81  51  35 S20G25    29.49R
Philladelphia  PTCLDY    63  52  67 S7        29.88R
Wash National  PTCLDY    63  52  67 S12       29.87R
Baltimore      PTCLDY    61  51  70 SE5       29.86R
Miami          PTCLDY    71  60  68 W7        29.67R
Detroit        CLOUDY    50  40  68 E10       29.82R
Newark         MOCLDY    57  49  74 SE5       29.86R
Laguardia      PTCLDY    56  47  71 CALM      29.86S
J F K          MOCLDY    48  46  93 S6        29.89R
Boston Logan   PTCLDY    54  49  83 SW18      29.82R
Ft. Lauderdale PTCLDY    72  59  63 W9        29.66R
Chicago O`Hare CLOUDY    38  34  85 NE16      29.76F WCI  29
Chicago Midway DRIZZLE   39  34  82 NE16G23   29.76F WCI  30
Houston Bush   CLEAR     72  55  55 SE13      29.67R
Houston Hobby  CLEAR     68  61  78 SE10      29.67S
Nashville      PTCLDY    67  54  63 S9        29.75F
Atlanta        PTCLDY    69  52  54 E3        29.85R

$$

GAZ044-118-TXZ119-213-NCZ071-DCZ001-MDZ014-506-PAZ021-071-NJZ106-
NYZ176-178-MAZ106-OHZ011-021-055-MIZ076-KYZ091-ILZ014-INZ047-
MNZ060-ONZ431-240200-
...Gateway Observations for Savannah International...

CITY           SKY/WX    TMP DP  RH WIND       PRES   REMARKS
Savannah Arpt  CLEAR     65  59  81 NE6       29.85R
Atlanta        PTCLDY    69  52  54 E3        29.85R
Charlotte      PTCLDY    68  49  50 E8        29.89R
Dallas DFW     PTCLDY    81  50  33 S16       29.48R
Houston Bush   CLEAR     72  55  55 SE13      29.67R
Wash National  PTCLDY    63  52  67 S12       29.87R
Wash Dulles    PTCLDY    66  50  56 S6        29.86R
Baltimore      PTCLDY    61  51  70 SE5       29.86R
Philadelphia   PTCLDY    63  52  67 S7        29.88R
Newark         MOCLDY    57  49  74 SE5       29.86R
Laguardia      PTCLDY    56  47  71 CALM      29.86S
J F K          MOCLDY    48  46  93 S6        29.89R
Boston         PTCLDY    54  49  83 SW18      29.82R
Pittsburg      CLOUDY    61  53  75 S5        29.82S
Akron          PTCLDY    60  51  72 NE7       29.81R
Cleveland      MOCLDY    57  49  74 E3        29.82S
Cincinnati     CLOUDY    63  56  78 SE7       29.77S
Columbus       CLOUDY    60  54  82 E5        29.78F
Detroit        CLOUDY    50  40  68 E10       29.82R
Chicago O`Hare CLOUDY    38  34  85 NE16      29.76F WCI  29
Minneapolis    CLOUDY    31  22  69 N16       29.93R WCI  20
Indianapolis   MOCLDY    62  53  72 SE7       29.71S
Toronto Canada PTCLDY    43  37  81 NW12      29.85R

$$




USA.gov is the U.S. government's official web portal to all federal, state and local government web resources and services.